Location: Fort Wayne
(41.1310°N, 85.1290°W)
Time: 06:16:28
(UTC-04:00)

Cosmos 1000 Rocket - Visible Passes

Search period start: 27 March 2015 00:00
Search period end: 06 April 2015 00:00
Orbit: 955 x 992 km, 82.9° (Epoch: 26 March)

Date Brightness Start Highest point End Pass type
(mag) Time Alt. Az. Time Alt. Az. Time Alt. Az.
27 Mar 5.2 21:43:59 10° SSW 21:50:03 56° WNW 21:56:12 10° N visible
28 Mar 7.4 06:55:38 10° NNE 06:59:47 19° ENE 07:04:11 10° ESE visible
28 Mar 5.0 20:23:59 10° SSE 20:29:36 38° E 20:35:21 10° NNE visible
28 Mar 6.2 22:09:33 10° SW 22:15:03 32° WNW 22:20:32 10° NNW visible
29 Mar 4.5 20:48:03 10° S 20:54:11 69° E 21:00:26 10° NNE visible
29 Mar 7.1 22:36:01 10° WSW 22:40:16 18° WNW 22:44:19 10° NNW visible
30 Mar 4.9 21:12:44 10° SSW 21:18:55 68° W 21:25:11 10° N visible
31 Mar 7.6 06:25:04 10° NNE 06:28:29 15° ENE 06:32:13 10° E visible
31 Mar 6.0 21:38:04 10° SW 21:43:50 38° WNW 21:49:37 10° N visible
01 Apr 7.0 06:48:34 10° NNE 06:53:47 27° ENE 06:59:06 10° SE visible
01 Apr 6.9 22:04:11 10° WSW 22:08:59 22° WNW 22:13:38 10° NNW visible
02 Apr 4.7 20:41:34 10° S 20:47:47 82° W 20:54:07 10° N visible
02 Apr 7.6 22:31:49 10° W 22:34:22 12° WNW 22:36:31 10° NW visible
03 Apr 7.8 05:54:47 10° NE 05:57:09 12° ENE 05:59:55 10° E visible
03 Apr 5.7 21:06:41 10° SSW 21:12:39 46° WNW 21:18:40 10° N visible
04 Apr 7.3 06:17:47 10° NNE 06:22:32 22° ENE 06:27:27 10° ESE visible
04 Apr 6.8 21:32:30 10° SW 21:37:43 26° WNW 21:42:51 10° NNW visible
05 Apr 6.2 06:41:48 10° N 06:47:40 39° ENE 06:53:32 10° SE visible
05 Apr 7.6 21:59:25 10° W 22:03:02 15° WNW 22:06:19 10° NNW visible
